Tracking 20083 objects as of 12-Dec-2019
HD Live streaming from Space Station
objects crossing your sky now

FENGYUN 1C DEB

Track FENGYUN 1C DEB now!
10-day predictions


NORAD ID: 31335
Int'l Code: 1999-025BQP
Perigee: 496.0 km
Apogee: 536.1 km
Inclination: 98.8 °
Period: 94.8 minutes
Semi major axis: 6887 km
RCS: 0.0053 m2 (small)
Launch date: May 10, 1999
Source: People's Republic of China (PRC)
Launch site: Taiyaun Space Center, China (TSC)

Note: This is SATELLITE DEBRIS
aabbcc
Your satellite tracking list
Your tracking list is empty




NASA's NSSDC Master Catalog

Two Line Element Set (TLE):
1 31335U 99025BQP 19345.54199354  .00014375  00000-0  68304-3 0  9996
2 31335  98.7884   3.1490 0029149 173.5899 186.5710 15.18983419678924
Source of the keplerian elements: AFSPC